Home   Weather   Bad Hersfeld   Past weeks

Flag for Germany Past Weather in Bad Hersfeld, Hesse, Germany — Yesterday and Last 2 Weeks

Now
9 °F

Passing clouds.


Feels Like: 9 °F
Forecast: 21 / 32 °F
Wind: 2 mph from Northwest

Location: Fritzlar Airport

Current Time: Jan 23, 2017 at 7:24:09 am

Latest Report: Jan 23, 2017 at 6:20 am


Visibility: 4 mi

Pressure: 30.27 "Hg

Humidity: 85%

Dew Point: 5 °F

Location of Bad HersfeldLocation

Past Weather in Bad Hersfeld — Graph

°F

Bad Hersfeld Temperature Yesterday

Maximum temperature yesterday: 27 °F (at 3:20 pm)
Minimum temperature yesterday: 12 °F (at 7:40 am)
Average temperature yesterday: 18 °F

High & Low Weather Summary for the Past Weeks

 TemperatureHumidityPressure
High41 °F (Jan 11, 8:20 pm)100% (Jan 8, 12:20 pm)30.69 "Hg (Jan 8, 12:20 pm)
Low9 °F (Jan 23, 3:20 am)48% (Jan 21, 3:20 pm)28.97 "Hg (Jan 13, 3:20 am)
Average29 °F84%30.15 "Hg
* Reported Jan 8 5:20 am — Jan 23 5:20 am, Bad Hersfeld, Weather by CustomWeather, © 2017

Note: Actual official high and low records may vary slightly from our data, if they occured in-between our weather recording intervals... More about our weather records

Advertising

Bad Hersfeld Weather History for the Previous 24 Hours

Scroll right to see more
 ConditionsComfort  
Time TempWeatherWind HumidityBarometerVisibility
5:20 am
Mon, Jan 23
10 °FCold.1 mph85%30.27 "Hg4 mi
4:20 am9 °FFrigid.3 mph92%30.27 "Hg4 mi
3:20 am9 °FFrigid.1 mph92%30.27 "Hg4 mi
2:20 am10 °FCold.2 mph85%30.27 "Hg4 mi
1:20 am12 °FCold.1 mph85%30.27 "Hg4 mi
12:20 am12 °FCold.2 mph85%30.27 "Hg4 mi
11:20 pm
Sun, Jan 22
14 °FCold.2 mph92%30.27 "Hg4 mi
10:20 pm14 °FCold.1 mph92%30.27 "Hg4 mi
9:20 pm16 °FCold.3 mph93%30.27 "Hg6 mi
8:20 pm19 °FCold.6 mph93%30.27 "Hg6 mi
7:20 pm19 °FCold.5 mph93%30.27 "Hg4 mi
6:20 pm19 °FCold.3 mph86%30.27 "Hg5 mi
5:20 pm21 °FPassing clouds.2 mph86%30.27 "HgN/A
4:20 pm25 °FCold.2 mph86%30.27 "HgN/A
3:20 pm27 °FChilly.2 mph80%30.27 "Hg5 mi
2:20 pm25 °FCold.2 mph86%30.27 "Hg5 mi
2:07 pm25 °FIce fog.2 mph86%30.30 "Hg3 mi
1:35 pm23 °FIce fog.2 mph93%30.30 "Hg1 mi
12:36 pm19 °FIce fog.2 mph93%30.33 "Hg1 mi
12:20 pm19 °FIce fog.1 mph93%30.33 "Hg1 mi
11:20 am19 °FIce fog.2 mph93%30.33 "Hg1 mi
10:36 am18 °FIce fog.1 mph93%30.36 "Hg1 mi
10:20 am18 °FIce fog.2 mph93%30.36 "Hg1 mi
9:59 am16 °FIce fog.3 mph93%30.36 "Hg1 mi
9:42 am16 °FIce fog.5 mph93%30.36 "Hg1 mi
9:20 am16 °FIce fog.5 mph93%30.36 "Hg2 mi
9:02 am16 °FIce fog.5 mph93%30.36 "Hg2 mi
8:43 am16 °FIce fog.3 mph93%30.36 "Hg2 mi
8:20 am16 °FIce fog.3 mph93%30.36 "Hg3 mi
7:40 am12 °FPassing clouds.3 mph92%30.36 "Hg4 mi
Weather by CustomWeather, © 2017

See weather overviewHow to use our weather pages